Погода в Порт-Блэре

Индия     11°38′32″N   92°43′45″E
темп.,
°C
ветер,
м/с
пор.,
м/с
влажн.,
%
обл.,
%
осадки,
мм/ч
давл.,
гПа
погр.,
м
17 мая, пн
пн1723:30+29всв11715 0.1 1008302
02:30+28ссз1175100 0.0 1007267
05:30+28зсз127720 0.0 1008197
08:30+31ссв1167100 0.0 1010811
11:30+32всв3366100 0.1 1009992
14:30+30св2371100 1.1 1007803
17:30+30ссв2373100 3.3 1007363
20:30+29ссв3476100 0.2 1009429
18 мая, вт
вт1823:30+29ссв227612 0.2 1008400
02:30+28ссз1178100 0.0 1006291
05:30+28ссз1178100 0.0 1008201
08:30+30св1167100 0.0 1010656
11:30+32в2163100 0.1 1008945
14:30+31ююв1165100 1.7 1006916
17:30+29ююз2274100 4.1 1008328
20:30+28ю347898 1.6 1010325
19 мая, ср
ср1923:30+28ююз237675 1.6 1008288
02:30+28ююз1276100 0.0 1007299
05:30+28зсз117684 0.3 1008198
08:30+30с2267100 0.0 1009786
11:30+31св3363100 0.1 1008985
14:30+30св4567100 1.3 10061053
17:30+28вюв4678100 5.4 1007577
20:30+27ююз3484100 0.0 1008406
20 мая, чт
чт2023:30+27юз3484100 1.4 1007293
02:30+27зсз2382100 0.1 1006271
05:30+28з2380100 0.1 1007289
08:30+29з3474100 1.8 1009525
11:30+29з3475100 3.1 1008505
14:30+28зюз5678100 5.1 1006449
17:30+27зсз5782100 8.1 1007447
20:30+27з4781100 0.3 1009460
21 мая, пт
пт2123:30+27з4781100 2.6 1008380
02:30+27з4681100 4.6 1006326
05:30+26юз3589100 14.3 1008249
08:30+26ююз4588100 4.5 1010381
11:30+28юз5677100 4.6 1008845
14:30+27зюз4785100 2.2 1006584
17:30+26зюз5886100 6.2 1007550
20:30+27юз71082100 1.6 1008694